Location: Dürabuch
(48.2640°N, 11.2185°E)
Time: 03:09:53
(UTC+00:00)

Cosmos 1400 Rocket - Pass Details

Date: 23 May 2024
Orbit: 501 x 544 km, 81.2° (Epoch: 13 June)

Event Time Altitude Azimuth Distance (km) Brightness Sun altitude
Exits shadow 00:32:28 31° 256° (WSW) 983 3.8 -18.8°
Maximum altitude 00:33:29 36° 288° (WNW) 883 3.8 -18.7°
Drops below altitude 10° 00:37:11 10° 356° (N) 1,817 6.4 -18.5°
Sets 00:39:29 0° 5° (N) 2,709 7.8 -18.4°
